Location: Molveno
(46.1500°N, 10.9667°E)
Time: 07:24:27
(UTC+00:00)

USA 215 - Pass Details

Date: 05 July 2020
Orbit: 1102 x 1106 km, 123.0° (Epoch: 31 July)

Event Time Altitude Azimuth Distance (km) Brightness Sun altitude
Rises 20:57:42 0° 52° (NE) 3,925 6.2 -13.9°
Reaches altitude 10° 21:00:12 10° 54° (NE) 2,965 5.6 -14.2°
Maximum altitude 21:06:45 75° 140° (SE) 1,139 3.2 -14.8°
Drops below altitude 10° 21:13:17 10° 226° (SW) 2,954 5.4 -15.3°
Sets 21:15:46 0° 228° (SW) 3,909 6.0 -15.6°
